SCP
0 0 0 0 0 0 0 0 0 0 0 0 0 0 0 0 0 0 0 0 0 1 1 1 1 1 0 0 0 0 0 0 0 0 0 0 0 0 0 0 0 0 0 0 0 0 0 0 0
0 0 0 0 0 0 0 0 0 0 0 0 0 0 0 0 0 0 0 0 0 1 1 1 1 1 1 0 0 0 0 0 0 0 0 0 0 0 0 0 0 0 0 0 0 0 0 0 0
0 0 0 0 0 0 0 0 0 0 0 0 0 0 0 0 0 0 0 0 0 1 1 1 1 1 1 1 0 0 0 0 0 0 0 0 0 0 0 0 0 0 0 0 0 0 0 0 0
0 0 0 0 0 0 0 0 0 0 0 0 0 0 0 0 0 0 0 0 0 1 1 1 1 1 1 1 1 0 0 0 0 0 0 0 0 0 0 0 0 0 0 0 0 0 0 0 0
0 0 0 0 0 0 0 0 0 0 0 0 0 0 0 0 0 0 0 0 0 1 1 1 1 1 1 1 1 1 0 0 0 0 0 0 0 0 0 0 0 0 0 0 0 0 0 0 0
0 0 0 0 0 0 0 0 0 0 0 0 0 0 0 0 0 0 0 0 0 1 1 1 1 1 1 1 1 1 1 0 0 0 0 0 0 0 0 0 0 0 0 0 0 0 0 0 0
0 0 0 0 0 0 0 0 0 0 0 0 0 0 0 0 0 0 0 0 0 1 1 1 1 1 1 1 1 1 1 0 0 0 0 0 0 0 0 0 0 0 0 0 0 0 0 0 0
0 0 0 0 0 0 0 0 0 0 0 0 0 0 0 0 0 0 0 0 0 1 1 1 1 1 1 1 1 1 1 0 0 0 0 0 0 0 0 0 0 0 0 0 0 0 0 0 0
0 0 0 0 0 0 0 0 0 0 0 0 0 0 0 0 0 0 0 0 0 1 1 1 1 1 1 1 1 1 1 0 0 0 0 0 0 0 0 0 0 0 0 0 0 0 0 0 0
0 0 0 0 0 0 0 0 0 0 0 0 0 0 0 0 0 0 0 0 0 0 1 1 1 1 1 1 1 1 1 0 0 0 0 0 0 0 0 0 0 0 0 0 0 0 0 0 0
0 0 0 0 0 0 0 0 0 0 0 0 0 0 0 0 0 0 0 0 0 0 0 1 1 1 1 1 1 1 1 1 0 0 0 0 0 0 0 0 0 0 0 0 0 0 0 0 0
0 0 0 0 0 0 0 0 0 0 0 0 0 0 0 0 0 0 0 0 0 0 0 0 1 1 1 1 1 1 1 1 0 0 0 0 0 0 0 0 0 0 0 0 0 0 0 0 0
0 0 0 0 0 0 0 0 0 0 0 0 0 0 0 0 0 0 0 0 0 0 0 0 0 1 1 1 1 1 1 1 0 0 0 0 0 0 0 0 0 0 0 0 0 0 0 0 0
0 0 0 0 0 0 0 0 0 0 0 0 0 0 0 0 0 0 0 0 0 0 0 0 0 0 1 1 1 1 1 1 1 0 0 0 0 0 0 0 0 0 0 0 0 0 0 0 0
0 0 0 0 0 0 0 0 0 0 0 0 0 0 0 0 0 0 0 0 0 0 0 0 0 0 1 1 1 1 1 1 1 1 0 0 0 0 0 0 0 0 0 0 0 0 0 0 0
0 0 0 0 0 0 0 0 0 0 0 0 0 0 0 0 0 0 0 0 0 0 0 0 0 0 0 1 1 1 1 1 1 0 0 0 0 0 0 0 0 0 0 0 0 0 0 0 0
0 0 0 0 0 0 0 0 0 0 0 0 0 0 0 0 0 0 0 0 0 0 0 0 0 0 0 0 1 1 1 1 1 0 0 0 0 0 0 0 0 0 0 0 0 0 0 0 0
0 0 0 0 0 0 0 0 0 0 0 0 0 0 0 0 0 0 0 0 0 0 0 0 0 0 0 0 1 1 1 1 0 0 0 0 0 0 0 0 0 0 0 0 0 0 0 0 0
0 0 0 0 0 0 0 0 0 0 0 0 0 0 0 0 0 0 0 0 0 0 0 0 0 0 0 0 0 0 0 0 0 0 0 0 0 0 0 0 0 0 0 0 0 0 0 0 0
0 0 0 0 0 0 0 0 0 0 0 0 0 0 0 0 0 0 0 0 0 0 0 0 0 0 0 0 0 0 0 0 0 0 0 0 0 0 0 0 0 0 0 0 0 0 0 0 0
0 0 0 0 0 0 0 0 0 0 0 0 0 0 0 0 0 0 0 0 0 0 0 0 0 0 0 0 0 0 0 0 0 0 0 0 0 0 0 0 0 0 0 0 0 0 0 0 0
0 0 0 0 0 0 0 0 0 0 0 0 0 0 0 0 0 0 0 0 0 0 0 0 0 0 0 0 0 0 0 0 0 0 0 0 0 0 0 0 0 0 0 0 0 0 0 0 0
0 0 0 0 0 0 0 0 0 0 0 0 0 0 0 0 0 0 0 0 0 0 0 0 0 0 0 0 0 0 0 0 0 0 0 0 0 0 0 0 0 0 0 0 0 0 0 0 0
0 0 0 0 0 0 0 0 0 0 0 0 0 0 0 0 0 0 0 0 0 0 0 0 0 0 0 0 0 0 0 0 0 0 0 0 0 0 0 0 0 0 0 0 0 0 0 0 0
0 0 0 0 0 0 0 0 0 0 -0 -0 0 0 0 0 0 0 0 0 0 0 0 0 0 0 0 0 0 0 0 0 0 0 0 0 0 0 0 0 0 0 0 0 0 0 0 0 0
0 0 0 0 0 0 0 0 0 -0 -0 -0 0 0 0 0 0 0 0 0 0 0 0 0 0 0 0 0 0 0 0 0 0 0 0 0 0 0 0 0 0 0 0 0 0 0 0 0 0
0 0 0 0 0 0 0 0 0 -0 -0 -0 0 0 0 0 0 0 0 0 0 0 0 0 0 0 0 0 0 0 0 0 0 0 0 0 0 0 0 0 0 0 0 0 0 0 0 0 0
0 0 0 0 0 0 0 0 0 -0 -0 -0 0 0 0 0 0 0 0 0 0 0 0 0 0 0 0 0 0 0 0 0 0 0 0 0 0 0 0 0 0 0 0 0 0 0 0 0 0
0 0 0 0 0 0 0 0 0 0 0 0 0 0 0 0 0 0 0 0 0 0 0 0 0 0 0 0 0 0 0 0 0 0 0 0 0 0 0 0 0 0 0 0 0 0 0 0 0
0 0 0 0 0 0 0 0 0 0 0 0 0 0 0 0 0 0 0 0 0 0 0 0 0 0 0 0 0 0 0 0 0 0 0 0 0 0 0 0 0 0 0 0 0 0 0 0 0
Wind_Speed
14 11 6 2 3 5 8 7 6 2 1 2 3 3 3 3 3 6 4 5 8 9 11 11 11 10 10 10 10 10 10 9 9 10 10 10 10 10 10 10 10 11 10 10 11 11 11 10 10
10 9 4 3 5 7 8 8 7 3 1 3 3 2 2 4 6 7 4 5 7 8 10 10 11 10 10 10 10 10 10 9 9 9 9 9 9 9 10 10 10 10 10 10 10 10 10 9 9
10 7 3 4 6 9 6 3 2 3 4 2 1 2 2 3 5 4 5 5 6 8 9 10 11 10 10 10 10 10 10 9 9 9 9 9 9 9 9 9 9 9 9 9 9 9 9 9 8
4 3 4 6 12 10 7 3 1 2 2 1 1 3 3 3 3 5 5 5 6 7 8 9 11 10 10 10 10 9 9 9 9 9 9 8 8 8 8 8 9 8 8 8 8 8 8 8 8
3 3 5 9 13 10 7 4 1 2 3 3 2 3 3 3 7 6 4 4 5 7 7 9 10 11 10 10 10 9 9 9 9 9 9 8 8 8 8 8 8 8 8 8 8 8 8 8 7
3 4 6 10 12 10 8 4 3 3 2 3 2 2 3 3 5 4 3 3 4 6 7 9 9 10 10 10 10 9 9 9 9 9 8 8 8 8 8 8 8 7 7 7 7 7 7 6 6
3 4 8 10 9 8 6 3 3 3 3 2 1 2 3 3 4 3 3 3 4 5 7 7 7 8 10 10 9 8 8 8 9 8 8 7 7 7 7 8 7 7 7 7 6 6 6 5 5
3 4 8 10 10 8 3 2 2 2 1 1 0 2 3 3 3 3 3 3 3 3 5 6 6 6 7 7 9 8 8 8 8 8 7 7 7 6 7 7 6 6 7 6 5 5 5 4 3
3 4 7 8 7 5 2 2 2 3 1 2 1 2 3 4 3 3 2 2 2 2 3 5 6 5 6 6 8 8 8 8 8 7 7 6 4 4 4 5 5 5 6 6 5 4 4 3 1
3 6 9 5 5 5 4 3 2 2 4 3 1 3 5 4 3 3 3 4 3 2 2 3 4 5 5 5 6 5 5 6 5 5 5 4 3 3 4 5 5 5 5 5 4 4 3 1 1
4 7 6 7 6 6 6 5 3 5 7 6 4 5 5 5 4 4 4 4 4 4 3 2 3 4 4 4 4 4 3 4 4 5 5 3 3 3 3 2 3 3 3 3 3 2 1 0 0
5 7 8 7 7 6 7 5 5 8 7 3 3 5 5 5 6 6 5 4 4 4 3 3 2 3 4 4 4 4 4 4 3 4 5 3 2 2 2 2 2 2 2 2 2 1 1 1 0
8 7 8 7 6 7 8 9 7 9 6 4 4 5 6 7 6 5 5 4 4 4 4 4 3 4 4 4 3 3 4 4 4 4 4 4 3 3 2 2 2 2 2 2 2 1 1 1 1
5 7 10 9 8 7 9 11 8 9 5 5 6 6 7 8 8 6 6 5 5 5 4 3 4 4 4 4 3 3 3 4 4 4 4 4 3 3 3 2 2 1 1 2 1 2 1 1 1
6 8 10 9 8 5 6 10 11 9 6 7 8 7 7 7 7 7 6 5 5 5 5 3 4 4 4 4 4 3 3 4 4 4 4 4 3 3 3 2 1 1 1 2 1 1 1 1 1
5 7 7 6 7 5 5 11 7 5 6 8 7 7 7 7 7 6 5 5 4 4 5 4 3 3 3 4 3 2 2 3 3 3 4 5 4 3 3 2 2 1 1 1 2 2 1 1 1
5 6 7 6 7 5 7 9 6 4 7 8 7 7 7 7 7 6 6 5 4 4 5 5 3 3 3 4 3 2 2 2 3 3 3 4 4 4 3 2 2 2 2 2 2 2 1 1 1
5 6 7 8 5 7 9 10 7 6 8 8 8 8 8 8 8 6 6 6 4 4 4 5 4 3 3 3 3 2 2 2 3 3 3 4 4 4 3 2 2 2 2 2 2 2 1 1 1
7 8 10 10 5 6 10 12 9 8 7 8 8 8 9 9 7 5 5 5 5 4 5 5 5 4 3 4 4 3 3 3 3 3 4 5 5 5 4 3 2 2 2 3 3 2 2 1 1
10 11 11 9 5 6 9 13 11 9 9 8 9 9 9 7 6 6 6 6 6 5 5 5 5 5 4 4 4 3 3 3 3 3 3 4 4 5 4 4 3 2 2 2 3 3 2 1 1
11 11 9 8 8 7 7 10 10 8 8 8 8 8 8 8 8 7 6 6 6 6 6 5 5 5 4 4 3 3 2 2 2 3 2 3 4 4 4 4 3 3 2 3 3 3 3 2 1
9 8 9 8 6 5 4 7 7 6 7 7 6 5 6 6 6 6 7 6 6 5 5 5 6 5 5 5 5 5 4 4 3 3 3 3 3 3 4 4 4 3 2 3 3 2 2 3 2
6 5 7 8 6 6 6 6 7 5 7 6 4 4 4 4 5 5 6 6 6 5 5 5 5 5 6 5 6 6 4 2 3 3 4 3 3 3 3 4 4 3 2 3 3 2 2 2 2
5 4 5 4 4 7 7 7 6 3 5 3 2 2 3 4 3 3 4 4 4 5 5 5 6 6 6 6 5 6 6 5 4 4 4 3 2 2 3 3 3 3 2 3 3 3 3 2 2
4 2 1 2 4 6 4 5 6 3 2 1 2 2 3 3 3 3 3 4 4 5 5 5 6 6 6 6 5 5 6 6 6 5 4 4 3 3 3 3 3 3 3 2 3 3 3 3 3
4 3 2 3 3 3 3 6 4 2 1 2 1 0 1 2 3 3 3 4 4 5 5 5 5 5 5 5 5 5 5 4 4 4 4 4 3 3 3 3 3 3 3 3 3 3 3 3 3
2 4 3 3 4 4 5 4 2 2 3 3 2 3 2 1 1 1 2 3 3 3 3 4 4 4 4 4 4 4 4 4 4 4 3 3 3 3 4 3 3 3 3 3 3 3 3 2 2
3 2 1 2 2 4 5 4 3 2 2 3 2 2 2 2 1 1 2 2 2 2 2 2 3 3 4 4 4 3 4 4 4 4 4 3 3 3 4 4 3 3 3 3 3 2 2 3 2
2 2 3 2 3 3 4 3 1 1 1 1 2 2 2 2 1 1 1 2 2 2 2 2 3 2 3 3 3 3 3 3 4 4 4 4 4 4 4 4 4 3 3 3 3 3 3 3 2
2 3 3 3 3 3 3 5 1 3 3 2 3 3 3 2 2 2 2 2 2 2 1 1 2 2 3 3 3 3 3 3 3 4 4 4 4 4 4 4 4 3 3 3 4 4 3 3 3
Wind_Direction
306 289 273 251 234 231 238 239 247 238 254 8 23 17 26 27 31 104 130 99 106 124 134 141 136 132 129 124 120 114 112 110 109 105 104 101 103 104 104 105 105 102 98 95 91 90 90 86 86
300 296 274 236 232 231 232 226 237 219 119 58 44 21 42 66 70 100 105 95 111 124 134 143 138 133 130 127 124 120 116 113 110 108 105 105 102 106 105 104 105 103 99 97 94 92 94 92 90
284 275 254 232 230 232 237 218 209 150 108 99 105 31 36 72 78 93 99 107 110 117 129 141 139 136 133 131 128 124 120 116 114 112 109 109 104 103 105 104 104 103 100 97 95 95 97 94 92
285 245 240 242 240 239 252 252 133 137 128 124 125 100 70 47 65 85 95 111 113 118 121 138 142 140 137 134 130 127 123 120 118 114 112 110 109 103 104 102 100 101 102 98 96 96 96 96 95
252 241 229 235 244 245 257 272 215 197 179 174 187 131 93 62 78 92 95 105 113 118 122 137 145 143 141 138 134 130 127 124 121 118 116 116 114 108 104 105 102 101 101 101 99 99 98 95 92
249 235 233 233 239 238 241 254 241 216 209 199 197 157 119 103 89 92 94 100 110 117 123 136 141 144 144 141 138 134 132 130 126 122 120 120 116 116 109 109 106 104 104 103 101 100 101 98 94
255 246 246 249 250 243 235 252 251 223 207 214 184 137 129 110 93 98 98 91 100 114 120 135 147 148 146 142 139 138 134 132 129 125 121 117 116 117 121 110 108 107 107 105 102 101 97 98 97
278 270 249 247 252 252 229 234 280 280 234 308 312 161 155 148 105 100 95 86 91 103 124 136 145 151 154 149 143 140 137 133 129 125 121 118 117 119 122 118 109 113 111 107 104 102 101 97 101
264 243 242 243 250 262 258 258 295 332 287 278 338 43 114 133 129 127 120 104 100 103 120 136 145 152 156 158 153 146 140 137 132 132 129 127 134 133 128 122 118 121 121 115 108 104 106 104 120
218 232 238 260 289 292 298 270 272 290 262 248 219 95 123 147 174 175 170 168 164 158 141 137 144 155 161 160 156 157 155 152 152 153 154 157 140 129 125 126 127 131 133 128 124 118 119 129 173
225 242 264 280 301 305 304 284 262 256 252 238 209 166 157 173 192 200 194 189 183 168 158 152 154 157 164 158 158 161 158 159 161 161 161 145 130 129 125 135 135 145 152 152 146 154 179 134 106
249 263 269 279 300 300 294 278 264 251 261 269 228 181 182 197 204 208 206 198 183 171 176 171 167 166 167 163 161 164 160 164 164 162 155 146 141 136 138 150 159 167 170 165 170 186 151 106 80
247 263 277 281 287 279 280 266 263 260 264 275 249 207 203 212 215 217 212 206 189 183 183 183 173 182 172 162 165 165 167 163 160 156 159 152 149 152 143 156 160 161 164 169 175 159 127 108 51
265 271 276 274 267 268 268 263 252 252 250 245 230 219 213 216 214 215 210 206 196 193 187 186 176 186 178 164 166 172 171 162 157 157 163 156 151 151 143 143 153 148 164 172 168 150 136 131 90
280 274 265 249 240 240 261 257 236 239 231 239 231 221 220 220 216 215 209 206 199 189 181 181 186 181 183 172 168 167 171 164 160 159 159 153 148 148 146 144 142 140 155 151 129 120 112 106 84
249 250 248 228 217 219 228 254 241 213 218 232 232 223 218 220 218 214 207 207 204 182 173 171 195 179 193 176 164 162 164 162 161 160 157 154 151 151 146 146 146 132 134 142 133 127 116 127 124
224 241 248 254 210 215 224 257 258 218 228 234 234 232 223 223 220 211 201 198 197 186 174 169 178 188 195 175 156 155 147 157 158 158 156 155 156 156 144 148 157 132 131 152 144 128 143 147 121
238 256 263 259 240 237 243 256 257 238 233 238 232 230 227 225 219 206 193 188 188 180 173 171 173 188 187 170 152 148 152 161 157 163 161 156 157 158 147 149 156 135 135 157 149 148 143 146 157
264 271 270 268 270 260 253 259 259 247 242 247 242 235 228 227 220 198 183 178 172 170 173 178 178 185 189 175 168 167 177 170 163 169 170 169 166 159 152 150 158 139 147 172 161 146 141 142 143
255 267 273 278 281 273 266 267 264 248 236 238 244 245 236 227 208 190 179 177 175 172 173 178 182 186 196 184 168 166 168 169 165 168 172 173 171 166 161 155 163 149 143 166 164 150 149 168 157
243 246 261 279 303 275 273 272 253 247 236 237 240 243 234 219 206 191 185 183 177 176 179 185 183 188 193 173 147 142 148 144 153 167 174 183 179 174 166 158 159 156 153 175 175 169 164 173 207
249 246 265 277 284 271 245 275 260 253 246 241 241 244 230 214 204 191 188 188 184 180 176 176 180 187 185 163 158 166 180 179 179 174 172 170 174 165 156 151 153 155 156 173 180 174 170 164 186
259 274 262 264 260 271 248 255 272 248 255 258 241 233 222 206 204 192 190 187 181 173 168 173 181 188 178 165 169 175 177 166 156 152 161 163 160 155 155 156 161 156 157 171 170 163 163 168 174
261 266 263 249 243 252 230 220 272 255 255 265 264 239 212 206 197 193 186 171 170 162 161 174 183 186 175 170 173 173 169 159 157 161 168 167 160 162 163 154 159 151 154 169 167 166 162 164 164
235 230 261 228 219 246 223 219 246 264 294 258 258 243 221 210 195 194 178 174 178 168 169 179 183 179 174 170 172 174 173 166 167 173 175 169 173 174 177 168 164 157 159 167 160 167 169 174 178
239 226 218 243 245 269 237 234 242 245 353 2 360 64 150 187 203 194 185 176 176 172 171 178 172 170 171 167 169 172 174 168 169 178 178 178 175 167 162 166 168 163 165 168 168 165 175 180 183
230 227 248 279 286 270 245 244 250 22 21 6 12 30 33 31 152 159 146 145 156 151 160 171 161 161 164 163 163 170 176 174 169 170 171 168 157 155 155 165 163 164 162 167 168 166 175 175 183
233 251 231 223 263 271 266 242 269 317 332 339 1 15 5 0 3 102 108 109 119 125 132 146 151 160 158 157 165 177 178 176 169 167 168 163 158 158 157 161 159 161 171 172 165 162 176 180 189
209 223 234 230 237 246 278 277 341 55 53 14 355 10 18 358 11 91 93 75 81 96 117 136 146 150 154 154 162 169 172 164 166 168 168 164 161 164 164 163 158 164 172 173 168 176 172 178 188
230 228 222 217 251 245 257 271 350 61 50 47 22 11 9 11 24 52 70 67 61 71 89 123 157 156 164 161 158 167 161 157 166 168 168 163 163 168 166 164 163 170 176 169 174 184 179 177 185